Location: Diebersbach
(48.5163°N, 8.0558°E)
Time: 00:47:11
(UTC+00:00)

FENGYUN 1C DEB - Pass Details

Date: 05 February 2022
Orbit: 690 x 984 km, 98.6° (Epoch: 23 May)

Event Time Altitude Azimuth Distance (km) Brightness Sun altitude
Rises 18:55:21 0° 207° (SSW) 3,672 ? -23.9°
Reaches altitude 10° 18:58:29 10° 223° (SW) 2,737 ? -24.4°
Maximum altitude 19:03:04 21° 271° (W) 2,031 ? -25.1°
Drops below altitude 10° 19:07:38 10° 319° (NW) 2,714 ? -25.9°
Sets 19:10:44 0° 335° (NNW) 3,634 ? -26.4°
